Погода в Андрюках

Россия / Краснодарский край     44°07′25″N   40°49′59″E
темп.,
°C
ветер,
м/с
пор.,
м/с
влажн.,
%
обл.,
%
осадки,
мм/ч
давл.,
гПа
погр.,
м
8 марта, пн
пн800:00−11ююз22741 0.0 102325
03:00−11ююз22730 0.0 102222
06:00−12ююз22730 0.0 102122
09:00−6ссв21800 0.0 1021198
12:00−3ссв218722 0.0 1019534
15:00−3ссв229461 0.5 1017326
18:00−4св129899 0.9 101884
21:00−8ююз229294 1.4 101933
9 марта, вт
вт900:00−9ююз338238 0.0 101845
03:00−9ююз338162 0.0 101844
06:00−9ююз338025 0.0 101854
09:00−2юз127513 0.0 1018289
12:000ссз12763 0.0 1017877
15:00+1сз15682 0.0 10171358
18:00−5сз11934 0.1 101930
21:00−8ююз338316 0.2 102245
10 марта, ср
ср1000:00−9ююз338161 0.1 102341
03:00−9ююз228365 0.1 102336
06:00−10ююз128724 0.1 102436
09:00−6св219017 0.2 1024263
12:00−4ссв339368 0.1 1023359
15:00−4ссв339484 0.8 1022340
18:00−6ссв2297100 0.4 1020163
21:00−8всв1199100 0.6 102051
11 марта, чт
чт1100:00−7в1195100 0.0 101954
03:00−7всв1197100 0.7 101875
06:00−7св1198100 1.6 101766
09:00−7ссв2396100 3.8 1017257
12:00−7ссв3395100 2.4 1016428
15:00−7св3595100 5.1 1017537
18:00−10всв2496100 2.1 1018489
21:00−11св2298100 3.5 1019164
12 марта, пт
пт1200:00−11св1298100 1.3 1020112
03:00−13ссв1298100 2.1 1022100
06:00−16юз0196100 0.2 102328
09:00−10всв118791 0.3 1025310
12:00−6ссв218639 0.0 1026558
15:00−6ссв229270 0.2 1026447
18:00−10св1199100 0.2 102821
21:00−11ююз338379 0.3 103029